| time (UTC) | temp F | wind direction | speed MPH | gust MPH | rain 1hr in | rain 24hr in | rain mn in | humidity % | barometer mb |
| 20260508034530 | 48 | 195 | 0.0 | 0.0 | 0.00 | 0.18 | 0.15 | 1 | 1011.8 |
| 20260508033024 | 49 | 195 | 0.0 | 0.0 | 0.00 | 0.18 | 0.15 | 1 | 1011.7 |
| 20260508031520 | 49 | 195 | 0.0 | 0.0 | 0.00 | 0.18 | 0.15 | 1 | 1011.4 |
| 20260508030015 | 50 | 195 | 0.0 | 0.0 | 0.00 | 0.18 | 0.15 | 1 | 1011.4 |
| 20260508024510 | 50 | 195 | 0.0 | 0.0 | 0.00 | 0.20 | 0.15 | 1 | 1011.4 |
| 20260508023007 | 51 | 195 | 0.0 | 0.0 | 0.00 | 0.20 | 0.15 | 1 | 1011.0 |
| 20260508021501 | 51 | 195 | 0.0 | 0.0 | 0.00 | 0.20 | 0.15 | 1 | 1010.8 |
| 20260508020103 | 52 | 195 | 0.0 | 0.0 | 0.00 | 0.20 | 0.15 | 1 | 1010.5 |
| 20260508014556 | 52 | 195 | 0.0 | 0.0 | 0.00 | 0.22 | 0.15 | 1 | 1010.3 |
| 20260508013056 | 53 | 195 | 0.0 | 0.0 | 0.00 | 0.22 | 0.15 | 1 | 1010.1 |
| 20260508011549 | 54 | 195 | 0.0 | 0.0 | 0.00 | 0.22 | 0.15 | 1 | 1009.9 |
| 20260508010040 | 54 | 195 | 0.0 | 0.0 | 0.00 | 0.22 | 0.15 | 1 | 1009.7 |
| 20260508004536 | 55 | 195 | 0.0 | 0.0 | 0.00 | 0.24 | 0.15 | 1 | 1009.6 |
| 20260508003032 | 56 | 195 | 0.0 | 0.0 | 0.00 | 0.24 | 0.15 | 1 | 1009.6 |
| 20260508001549 | 56 | 195 | 0.0 | 0.0 | 0.00 | 0.24 | 0.15 | 1 | 1009.6 |
| 20260508000023 | 56 | 240 | 0.0 | 0.0 | 0.00 | 0.24 | 0.15 | 1 | 1009.4 |
| 20260507234518 | 57 | 254 | 0.0 | 0.0 | 0.00 | 0.24 | 0.15 | 1 | 1009.4 |
| 20260507233017 | 57 | 263 | 0.0 | 0.0 | 0.00 | 0.24 | 0.15 | 1 | 1009.1 |
| 20260507231510 | 57 | 263 | 0.0 | 1.0 | 0.00 | 0.24 | 0.15 | 1 | 1008.7 |
| 20260507230007 | 57 | 68 | 0.0 | 0.0 | 0.00 | 0.24 | 0.15 | 1 | 1008.4 |
| 20260507224500 | 56 | 256 | 0.0 | 0.0 | 0.00 | 0.24 | 0.15 | 1 | 1008.4 |
| 20260507223057 | 57 | 239 | 0.0 | 0.0 | 0.00 | 0.24 | 0.15 | 1 | 1008.5 |
| 20260507221552 | 56 | 104 | 0.0 | 0.0 | 0.00 | 0.24 | 0.15 | 1 | 1008.2 |
| 20260507214551 | 56 | 9 | 0.0 | 1.0 | 0.00 | 0.24 | 0.15 | 1 | 1008.1 |
| 20260507213046 | 56 | 230 | 0.0 | 0.0 | 0.00 | 0.24 | 0.15 | 1 | 1008.1 |
| 20260507211545 | 56 | 132 | 0.0 | 0.0 | 0.00 | 0.24 | 0.15 | 1 | 1007.9 |
| 20260507210045 | 56 | 125 | 0.0 | 8.0 | 0.00 | 0.24 | 0.15 | 1 | 1008.0 |
| 20260507204548 | 56 | 194 | 0.0 | 0.0 | 0.01 | 0.24 | 0.15 | 1 | 1007.9 |
| 20260507203041 | 56 | 101 | 0.0 | 0.0 | 0.02 | 0.24 | 0.15 | 1 | 1008.0 |
| 20260507201542 | 56 | 154 | 0.0 | 0.0 | 0.02 | 0.24 | 0.15 | 1 | 1008.1 |
| 20260507200034 | 56 | 141 | 0.0 | 0.0 | 0.02 | 0.24 | 0.15 | 1 | 1008.0 |
| 20260507194528 | 56 | 92 | 0.0 | 1.0 | 0.01 | 0.23 | 0.14 | 1 | 1008.2 |
| 20260507193025 | 57 | 55 | 0.0 | 6.0 | 0.00 | 0.22 | 0.13 | 1 | 1008.2 |
| 20260507191521 | 57 | 347 | 0.0 | 0.0 | 0.00 | 0.22 | 0.13 | 1 | 1007.9 |
| 20260507190018 | 57 | 142 | 0.0 | 4.0 | 0.00 | 0.22 | 0.13 | 1 | 1008.1 |
| 20260507184511 | 58 | 230 | 0.0 | 3.0 | 0.00 | 0.22 | 0.13 | 1 | 1008.0 |
| 20260507183007 | 58 | 19 | 0.0 | 1.0 | 0.00 | 0.22 | 0.13 | 1 | 1008.1 |
| 20260507181502 | 59 | 105 | 0.0 | 7.0 | 0.01 | 0.22 | 0.13 | 1 | 1007.9 |
| 20260507180058 | 59 | 232 | 0.0 | 4.0 | 0.01 | 0.22 | 0.13 | 1 | 1007.8 |
| 20260507174557 | 60 | 246 | 0.0 | 5.0 | 0.01 | 0.22 | 0.13 | 1 | 1007.7 |
| 20260507173055 | 60 | 254 | 0.0 | 1.0 | 0.03 | 0.22 | 0.13 | 1 | 1007.8 |
| 20260507171545 | 60 | 240 | 0.0 | 3.0 | 0.05 | 0.22 | 0.13 | 1 | 1008.3 |
| 20260507170040 | 60 | 300 | 1.0 | 4.0 | 0.05 | 0.21 | 0.12 | 1 | 1008.1 |
| 20260507164522 | 61 | 5 | 0.0 | 1.0 | 0.05 | 0.21 | 0.12 | 1 | 1007.7 |
| 20260507163018 | 61 | 243 | 0.0 | 2.0 | 0.03 | 0.19 | 0.10 | 1 | 1007.6 |
| 20260507161514 | 61 | 128 | 0.0 | 1.0 | 0.02 | 0.18 | 0.09 | 1 | 1007.6 |
| 20260507160014 | 61 | 240 | 0.0 | 3.0 | 0.00 | 0.16 | 0.07 | 1 | 1007.8 |
| 20260507154506 | 61 | 184 | 0.0 | 4.0 | 0.00 | 0.16 | 0.07 | 1 | 1007.8 |
| 20260507153003 | 61 | 241 | 0.0 | 1.0 | 0.00 | 0.16 | 0.07 | 1 | 1008.1 |
| 20260507151557 | 61 | 200 | 0.0 | 5.0 | 0.00 | 0.16 | 0.07 | 1 | 1008.2 |
| 20260507150053 | 62 | 311 | 0.0 | 1.0 | 0.00 | 0.16 | 0.07 | 1 | 1008.3 |
| 20260507144548 | 63 | 267 | 0.0 | 0.0 | 0.00 | 0.16 | 0.07 | 1 | 1007.8 |
| 20260507143046 | 63 | 227 | 0.0 | 0.0 | 0.00 | 0.16 | 0.07 | 1 | 1007.5 |
| 20260507141539 | 64 | 323 | 0.0 | 0.0 | 0.01 | 0.16 | 0.07 | 1 | 1007.5 |
| 20260507140043 | 64 | 99 | 0.0 | 0.0 | 0.01 | 0.16 | 0.07 | 1 | 1007.4 |
| 20260507134541 | 64 | 23 | 0.0 | 0.0 | 0.02 | 0.16 | 0.07 | 1 | 1007.5 |
| 20260507133036 | 64 | 308 | 0.0 | 0.0 | 0.03 | 0.16 | 0.07 | 1 | 1007.3 |
| 20260507131550 | 63 | 11 | 0.0 | 0.0 | 0.03 | 0.15 | 0.06 | 1 | 1007.3 |
| 20260507130029 | 63 | 331 | 0.0 | 0.0 | 0.04 | 0.15 | 0.06 | 1 | 1008.0 |
| 20260507124524 | 63 | 28 | 0.0 | 0.0 | 0.03 | 0.14 | 0.05 | 1 | 1008.6 |
| 20260507123023 | 63 | 67 | 0.0 | 0.0 | 0.02 | 0.13 | 0.04 | 1 | 1008.4 |
| 20260507121522 | 63 | 46 | 0.0 | 0.0 | 0.02 | 0.12 | 0.03 | 1 | 1008.2 |
| 20260507120033 | 63 | 122 | 0.0 | 0.0 | 0.01 | 0.11 | 0.02 | 1 | 1008.2 |
| 20260507114514 | 63 | 98 | 0.0 | 0.0 | 0.01 | 0.11 | 0.02 | 1 | 1008.3 |
| 20260507113010 | 62 | 66 | 0.0 | 0.0 | 0.01 | 0.11 | 0.02 | 1 | 1008.1 |
| 20260507111507 | 62 | 11 | 0.0 | 0.0 | 0.00 | 0.10 | 0.01 | 1 | 1007.8 |
| 20260507110002 | 62 | 11 | 0.0 | 0.0 | 0.00 | 0.10 | 0.01 | 1 | 1007.9 |
| 20260507104557 | 62 | 11 | 0.0 | 0.0 | 0.00 | 0.10 | 0.01 | 1 | 1007.8 |
| 20260507103054 | 62 | 11 | 0.0 | 0.0 | 0.00 | 0.10 | 0.01 | 1 | 1007.8 |
| 20260507101557 | 62 | 315 | 0.0 | 0.0 | 0.00 | 0.10 | 0.01 | 1 | 1007.7 |
| 20260507100045 | 62 | 316 | 0.0 | 0.0 | 0.00 | 0.10 | 0.01 | 1 | 1007.7 |
| 20260507094541 | 63 | 316 | 0.0 | 0.0 | 0.00 | 0.10 | 0.01 | 1 | 1007.6 |
| 20260507093037 | 63 | 316 | 0.0 | 0.0 | 0.00 | 0.10 | 0.01 | 1 | 1007.6 |
| 20260507091531 | 63 | 316 | 0.0 | 0.0 | 0.00 | 0.10 | 0.01 | 1 | 1007.8 |
| 20260507090027 | 63 | 316 | 0.0 | 0.0 | 0.00 | 0.10 | 0.01 | 1 | 1008.1 |
| 20260507084523 | 63 | 316 | 0.0 | 0.0 | 0.00 | 0.10 | 0.01 | 1 | 1007.9 |
| 20260507083019 | 63 | 316 | 0.0 | 0.0 | 0.00 | 0.10 | 0.01 | 1 | 1007.6 |
| 20260507081532 | 63 | 316 | 0.0 | 0.0 | 0.00 | 0.10 | 0.01 | 1 | 1007.7 |
| 20260507080012 | 63 | 316 | 0.0 | 0.0 | 0.00 | 0.10 | 0.01 | 1 | 1007.7 |
| 20260507074521 | 63 | 316 | 0.0 | 0.0 | 0.00 | 0.10 | 0.01 | 1 | 1007.5 |
| 20260507073105 | 63 | 316 | 0.0 | 0.0 | 0.00 | 0.10 | 0.01 | 1 | 1007.8 |
| 20260507071502 | 63 | 36 | 0.0 | 0.0 | 0.00 | 0.10 | 0.01 | 1 | 1007.5 |
| 20260507070058 | 63 | 36 | 0.0 | 0.0 | 0.00 | 0.10 | 0.01 | 1 | 1008.2 |
| 20260507064555 | 63 | 35 | 0.0 | 0.0 | 0.00 | 0.10 | 0.01 | 1 | 1008.3 |
| 20260507063050 | 63 | 35 | 0.0 | 0.0 | 0.00 | 0.10 | 0.01 | 1 | 1008.5 |
| 20260507061546 | 63 | 35 | 0.0 | 0.0 | 0.01 | 0.10 | 0.01 | 1 | 1008.7 |
| 20260507060046 | 63 | 35 | 0.0 | 0.0 | 0.01 | 0.10 | 0.01 | 1 | 1009.4 |
| 20260507054547 | 63 | 35 | 0.0 | 0.0 | 0.01 | 0.10 | 0.01 | 1 | 1009.7 |
| 20260507053035 | 64 | 35 | 0.0 | 0.0 | 0.01 | 0.10 | 0.01 | 1 | 1009.8 |
| 20260507051529 | 64 | 35 | 0.0 | 0.0 | 0.00 | 0.09 | 0.00 | 1 | 1009.8 |
| 20260507050027 | 64 | 95 | 0.0 | 0.0 | 0.00 | 0.09 | 0.00 | 1 | 1009.9 |
| 20260507044520 | 64 | 96 | 0.0 | 0.0 | 0.00 | 0.09 | 0.00 | 1 | 1010.1 |
| 20260507043016 | 65 | 96 | 0.0 | 0.0 | 0.00 | 0.09 | 0.00 | 1 | 1009.7 |
| 20260507041512 | 65 | 98 | 0.0 | 0.0 | 0.02 | 0.09 | 0.00 | 1 | 1009.6 |
| 20260507040008 | 65 | 99 | 0.0 | 0.0 | 0.03 | 0.09 | 0.00 | 1 | 1009.5 |